This is the latest recevied weather packets stored in our database for station/object N8AMF. If no packets are shown the sender has not sent any weather packets the latest 10 day(s).
| Time | Temp. | Humidity | Pressure | Rain* | Wind** | Luminosity | Snow |
|---|---|---|---|---|---|---|---|
| 1777995759 | 18.89° C | 64% | 1006 hPa | 0 mm | - | 183 W/m² | - |
| 1777995456 | 20° C | 62% | 1006 hPa | 0 mm | - | 216 W/m² | - |
| 1777995153 | 20.56° C | 61% | 1005.9 hPa | 0 mm | - | 357 W/m² | - |
| 1777994850 | 20° C | 62% | 1005.7 hPa | 0 mm | - | 594 W/m² | - |
| 1777994546 | 20.56° C | 63% | 1005.6 hPa | 0 mm | - | 668 W/m² | - |
| 1777994240 | 20.56° C | 62% | 1005.5 hPa | 0 mm | - | 711 W/m² | - |
| 1777993938 | 20° C | 62% | 1005.2 hPa | 0 mm | - | 580 W/m² | - |
| 1777993635 | 20° C | 61% | 1005 hPa | 0 mm | - | 396 W/m² | - |
| 1777993332 | 20° C | 63% | 1005 hPa | 0 mm | - | 587 W/m² | - |
| 1777993032 | 20° C | 61% | 1005 hPa | 0 mm | - | 617 W/m² | - |
| 1777992731 | 19.44° C | 62% | 1004.8 hPa | 0 mm | - | 652 W/m² | - |
| 1777992428 | 19.44° C | 62% | 1005 hPa | 0 mm | - | 318 W/m² | - |
| 1777992126 | 19.44° C | 63% | 1004.9 hPa | 0 mm | - | 604 W/m² | - |
| 1777991823 | 19.44° C | 62% | 1004.8 hPa | 0 mm | - | 639 W/m² | - |
| 1777991520 | 18.89° C | 62% | 1005.1 hPa | 0 mm | - | 564 W/m² | - |
| 1777991217 | 18.89° C | 64% | 1004.9 hPa | 0 mm | - | 516 W/m² | - |
| 1777990915 | 18.89° C | 64% | 1005.1 hPa | 0 mm | - | 545 W/m² | - |
| 1777990612 | 18.89° C | 63% | 1004.9 hPa | 0 mm | - | 533 W/m² | - |
| 1777990005 | 18.33° C | 65% | 1005.1 hPa | 0 mm | - | 531 W/m² | - |
| 1777989702 | 18.33° C | 65% | 1005.1 hPa | 0 mm | - | 538 W/m² | - |
| 1777989398 | 18.33° C | 66% | 1005 hPa | 0 mm | - | 449 W/m² | - |
| 1777989095 | 18.33° C | 67% | 1004.9 hPa | 0 mm | - | 248 W/m² | - |
| 1777988790 | 18.89° C | 67% | 1004.6 hPa | 0 mm | - | 228 W/m² | - |
| 1777988488 | 18.33° C | 67% | 1004.8 hPa | 0 mm | - | 217 W/m² | - |
| 1777988185 | 18.33° C | 67% | 1005 hPa | 0 mm | - | 183 W/m² | - |
* Rain latest hour (hover to see other rain measurements)
** Current wind speed in m/s (hover to see current wind gust speed)